Hourly Data Report for October 21, 2014

All times are specified in Local Standard Time (LST). Add 1 hour to adjust for Daylight Saving Time where and when it is observed.

RANKIN INLET A
NUNAVUT

62°48'38.000" N
92°06'53.000" W
32.30 m
2303405
71083
YRT

Download Data

Hourly Data (October 2014)
Hourly Data Report for October 21, 2014
Temp Definition
°C
Dew Point Temp Definition
°C
Rel Hum Definition
%
Wind Dir Definition
10's deg

Wind Spd Definition
km/h
Visibility Definition
km
Stn Press Definition
kPa
Hmdx Definition


Wind Chill Definition


Weather Definition


TIME
00:00 Legend Double Dagger -0.9 -2.0 92 16 33 24.1 100.88   -8 Cloudy
01:00 Legend Double Dagger 0.0 -0.9 94 16 38 24.1 100.73   -7 LegendNANA
02:00 Legend Double Dagger 0.2 -0.8 93 17 39 24.1 100.60     LegendNANA
03:00 Legend Double Dagger 0.5 -0.4 94 17 39 24.1 100.50     Cloudy
04:00 Legend Double Dagger 0.7 -0.2 94 17 45 24.1 100.31     LegendNANA
05:00 Legend Double Dagger 0.9 -0.3 92 18 50 24.1 100.17     LegendNANA
06:00 Legend Double Dagger 0.9 0.2 95 19 47 6.4 100.10     Drizzle,Fog
07:00 Legend Double Dagger 1.0 0.4 96 19 35 3.2 100.01     Drizzle,Fog
08:00 Legend Double Dagger 1.0 0.4 96 19 41 2.4 99.83     Drizzle,Fog
09:00 Legend Double Dagger 0.6 -0.3 94 21 31 12.9 99.78     Cloudy
10:00 Legend Double Dagger 0.6 0.0 96 21 29 2.4 99.67     Drizzle,Fog
11:00 Legend Double Dagger 0.6 0.2 97 21 27 2.4 99.61     Drizzle,Fog
12:00 Legend Double Dagger 0.6 0.2 97 21 30 3.2 99.58     Drizzle,Fog
13:00 Legend Double Dagger 0.6 0.2 97 22 25 3.2 99.50     Drizzle,Fog
14:00 Legend Double Dagger 0.6 0.2 97 23 20 4.8 99.49     Drizzle,Fog
15:00 Legend Double Dagger 0.8 0.4 97 22 18 9.7 99.44     Drizzle,Fog
16:00 Legend Double Dagger 0.8 0.4 97 22 17 9.7 99.41     Drizzle,Fog
17:00 Legend Double Dagger 0.8 0.4 97 23 19 9.7 99.44     Fog
18:00 Legend Double Dagger 0.9 0.5 97 23 18 9.7 99.45     Fog
19:00 Legend Double Dagger 1.0 0.6 97 25 16 9.7 99.47     Fog
20:00 Legend Double Dagger 1.0 0.4 96 26 17 9.7 99.53     Fog
21:00 Legend Double Dagger 1.0 0.4 96 25 16 9.7 99.51     Fog
22:00 Legend Double Dagger 1.1 0.5 96 26 16 9.7 99.57     Fog
23:00 Legend Double Dagger 0.9 0.3 96 26 16 9.7 99.60     Fog

Notes on Data Quality.

Legend

  • E = Estimated
  • M = Missing
  • NA = Not Available
  • ‡ = Partner data that is not subject to review by the National Climate Archives
Date modified: